      5   01 54.70  +10 03.5  1.693   1.710    73.5   34.8   12.4   +30.9  280.2

      6   01 54.11  +10 27.7  1.689   1.723    74.5   34.7   12.4   +32.1  280.7

      7   01 53.48  +10 51.8  1.686   1.736    75.4   34.5   12.4   +33.4  281.2

      8   01 52.82  +11 15.8  1.682   1.748    76.4   34.4   12.4   +34.7  281.7

      9   01 52.13  +11 39.8  1.678   1.761    77.4   34.3   12.5   +36.1  282.3

     10   01 51.40  +12 03.8  1.674   1.774    78.3   34.1   12.5   +37.4  282.8

     11   01 50.64  +12 27.6  1.669   1.787    79.3   34.0   12.5   +38.7  283.4

     12   01 49.83  +12 51.5  1.665   1.799    80.3   33.8   12.5   +40.1  284.1

     13   01 49.00  +13 15.2  1.661   1.812    81.3   33.7   12.5   +41.4  284.7

     14   01 48.12  +13 38.9  1.657   1.825    82.4   33.5   12.6   +42.8  285.4

     15   01 47.20  +14 02.6  1.653   1.838    83.4   33.3   12.6   +44.2  286.1

     16   01 46.25  +14 26.1  1.649   1.851    84.4   33.1   12.6   +45.5  286.8

     17   01 45.25  +14 49.6  1.645   1.863    85.4   32.9   12.6   +46.9  287.6

     18   01 44.22  +15 13.1  1.640   1.876    86.5   32.7   12.6   +48.3  288.4

     19   01 43.14  +15 36.4  1.636   1.889    87.5   32.5   12.6   +49.7  289.3

     20   01 42.02  +15 59.7  1.632   1.902    88.6   32.3   12.7   +51.1  290.2

     21   01 40.85  +16 22.9  1.628   1.914    89.7   32.1   12.7   +52.5  291.2

     22   01 39.65  +16 46.0  1.624   1.927    90.8   31.8   12.7   +53.9  292.2

     23   01 38.40  +17 08.9  1.620   1.940    91.9   31.6   12.7   +55.3  293.3

     24   01 37.10  +17 31.8  1.616   1.953    92.9   31.3   12.7   +56.8  294.4

     25   01 35.76  +17 54.6  1.613   1.965    94.0   31.0   12.7   +58.2  295.7

     26   01 34.37  +18 17.2  1.609   1.978    95.2   30.8   12.8   +59.6  297.0

     27   01 32.93  +18 39.7  1.605   1.991    96.3   30.5   12.8   +61.0  298.4

     28   01 31.45  +19 02.1  1.601   2.004    97.4   30.2   12.8   +62.4  300.0

     29   01 29.92  +19 24.3  1.598   2.016    98.5   29.9   12.8   +63.8  301.7

     30   01 28.34  +19 46.3  1.595   2.029    99.7   29.6   12.8   +65.2  303.6

     31   01 26.71  +20 08.2  1.591   2.042   100.8   29.2   12.8   +66.6  305.6

Aug.  1   01 25.04  +20 29.8  1.588   2.054   102.0   28.9   12.8   +67.9  307.9

NAKANO

         **** Don't distribute anyone except personal use only ****

                (C) Copyright 2005 OAA/ComputingSection

write mail from CFAD0::NAKANO on 2005-06-16 05:52:53(JST).

 

    C/2005 A1 (LINEAR)                                                    

Epoch 2005 Apr. 20.0 TT = JDT 2453480.5  

T 2005 Apr. 10.22455 TT                                 Nakano

q   0.9068916            (2000.0)            P               Q

z  -0.0006969      Peri.  271.86379     +0.01362615     +0.99747528

 +/-0.0000113      Node   355.86011     +0.14319738     -0.07092962

e   1.0006320      Incl.   74.88666     -0.98960034     +0.00347091

From 209 observations 2004 Dec. 9-2005 Apr. 30, mean residual 0".63.

   (1/a)org.= +0.000052, (1/a)fut.= -0.000537 (+/-0.000011), Q= 6.



NAKANO

         **** Don't distribute anyone except personal use only ****

                (C) Copyright 2005 OAA/ComputingSection

write mail from CFAD0::NAKANO on 2005-05-07 04:29:59(JST).

 



    C/2005 A1 (LINEAR)                                                    

Epoch 2005 Apr. 20.0 TT = JDT 2453480.5  

T 2005 Apr. 10.23248 TT                                 Nakano

q   0.9068034            (2000.0)            P               Q

z  -0.0003867      Peri.  271.87420     +0.01379567     +0.99747046

 +/-0.0000419      Node   355.85796     +0.14315916     -0.07098914

e   1.0003506      Incl.   74.88521     -0.98960352     +0.00363583

From 174 observations 2004 Dec. 9-2005 Mar. 4, mean residual 0".55.

   (1/a)org.= +0.000362, (1/a)fut.= -0.000227 (+/-0.000042), Q= 5.



NAKANO

         **** Don't distribute anyone except personal use only ****

                (C) Copyright 2005 OAA/ComputingSection

write mail from CFAD0::NAKANO on 2005-04-06 02:03:09(JST).



    C/2005 A1 (LINEAR)                                                    

Epoch 2005 Apr. 20.0 TT = JDT 2453480.5  

T 2005 Apr. 10.23428 TT                                 Nakano

q   0.9067751            (2000.0)            P               Q

z  -0.0003192      Peri.  271.87708     +0.01384386     +0.99746929

 +/-0.0000581      Node   355.85753     +0.14315488     -0.07100316

e   1.0002894      Incl.   74.88518     -0.98960347     +0.00368267

From 161 observations 2004 Dec. 9-2005 Feb. 22, mean residual 0".55.

   (1/a)org.= +0.000430, (1/a)fut.= -0.000160 (+/-0.000058), Q= 5.



NAKANO

         **** Don't distribute anyone except personal use only ****

                (C) Copyright 2005 OAA/ComputingSection

write mail from CFAD0::NAKANO on 2005-03-05 03:18:44(JST).

 

    C/2005 A1 (LINEAR)                                                    

T 2005 Apr. 10.24280 TT                                 Nakano

q   0.9066884            (2000.0)            P               Q

                   Peri.  271.88717     +0.01401003     +0.99746468

                   Node   355.85557     +0.14313548     -0.07105948

e   1.0            Incl.   74.88480     -0.98960394     +0.00384334

From 110 observations 2004 Dec. 9-2005 Jan. 30.



NAKANO

         **** Don't distribute anyone except personal use only ****

                (C) Copyright 2005 OAA/ComputingSection

write mail from CFAD0::NAKANO on 2005-02-04 04:54:56(JST).

 





◎C/2005 A1の軌道と予報位置です



  1月21日の上尾(門田健一)と久万(中村彰正)の観測が報告されました.

CCD全光度は,いずれも,12.8等でした.発見時の15等級に比べると,だいぶ

増光しましたが,2月中旬に我が国からは,一旦,観測できなくなります.



    C/2005 A1 (LINEAR)                                                    

T 2005 Apr. 10.24091 TT                                 Nakano

q   0.9066202            (2000.0)            P               Q

                   Peri.  271.89063     +0.01407106     +0.99746325

                   Node   355.85513     +0.14317104     -0.07107648

e   1.0            Incl.   74.88712     -0.98959793     +0.00389984

From 92 observations 2004 Dec. 9-2005 Jan. 21.

                    

 

Date/        TT  R.A.(2000) Decl.     Delta   r     Daily motion  Mag.  Moon Age

              h    h  m       。  ,                      ,  / PA 。  m1      。

2005 Jan. 25 18  14 06.54  -27 17.0   1.259  1.557    61.9 / 163  11.9   91 1.00

          26 18  14 07.94  -28 16.1   1.236  1.545    63.9 / 163  11.8   80  .98

          27 18  14 09.39  -29 17.1   1.213  1.532    65.9 / 163  11.8   69  .95

          28 18  14 10.87  -30 20.1   1.191  1.519    68.0 / 163  11.7   58  .90

          29 18  14 12.39  -31 25.2   1.169  1.507    70.2 / 164  11.6   47  .84

          30 18  14 13.96  -32 32.4   1.148  1.494    72.4 / 164  11.5   37  .75

          31 18  14 15.58  -33 41.9   1.127  1.482    74.8 / 164  11.5   28  .66

     Feb.  1 18  14 17.25  -34 53.8   1.106  1.470    77.2 / 164  11.4   21  .56

           2 18  14 18.99  -36 08.0   1.086  1.457    79.7 / 164  11.3   19  .45

           3 18  14 20.80  -37 24.6   1.066  1.445    82.3 / 164  11.2   26  .34

           4 18  14 22.69  -38 43.8   1.047  1.432    84.9 / 164  11.2   36  .24

           5 18  14 24.67  -40 05.6   1.028  1.420    87.6 / 165  11.1   47  .15

           6 18  14 26.75  -41 30.0   1.010  1.408    90.4 / 165  11.0   60  .07

           7 18  14 28.95  -42 57.0   0.992  1.396    93.2 / 165  10.9   72  .02

           8 18  14 31.27  -44 26.8   0.975  1.384    96.1 / 164  10.9   85  .00

           9 18  14 33.73  -45 59.3   0.958  1.371    98.9 / 164  10.8   98  .01

          10 18  14 36.37  -47 34.4   0.942  1.359   101.8 / 164  10.7  109  .05

          11 18  14 39.20  -49 12.3   0.927  1.347   104.7 / 164  10.6  120  .11

          12 18  14 42.26  -50 52.7   0.913  1.335   107.5 / 164  10.6  129  .19

          13 18  14 45.57  -52 35.8   0.899  1.323   110.3 / 163  10.5  137  .28

          14 18  14 49.20  -54 21.2   0.886  1.312   113.0 / 163  10.4  142  .37

          15 18  14 53.19  -56 09.0   0.874  1.300   115.7 / 162  10.3  145  .47

          16 18  14 57.61  -57 58.9   0.863  1.288   118.2 / 162  10.3  144  .57

          17 18  15 02.55  -59 50.7   0.853  1.277   120.5 / 161  10.2  141  .66

          18 18  15 08.13  -61 44.1   0.843  1.265   122.7 / 160  10.2  136  .75

          19 18  15 14.49  -63 38.8   0.835  1.253   124.7 / 159  10.1  130  .83

          20 18  15 21.81  -65 34.3   0.827  1.242   126.4 / 157  10.0  123  .89

          21 18  15 30.34  -67 30.0   0.821  1.231   127.9 / 155  10.0  117  .94

          22 18  15 40.43  -69 25.2   0.815  1.220   129.2 / 153   9.9  110  .98

          23 18  15 52.51  -71 19.2   0.811  1.208   130.1 / 151   9.9  103 1.00

          24 18  16 07.20  -73 10.6   0.807  1.197   130.7 / 147   9.8   96 1.00

          25 18  16 25.36  -74 58.0   0.804  1.187   131.1 / 143   9.8   89  .98

          26 18  16 48.09  -76 39.1   0.803  1.176   131.1 / 138   9.7   83  .94

          27 18  17 16.82  -78 10.8   0.802  1.165   130.8 / 131   9.7   77  .88

          28 18  17 53.04  -79 28.8   0.803  1.155   130.2 / 122   9.6   71  .80

     Mar.  1 18  18 37.62  -80 27.6   0.804  1.144   129.3 / 111   9.6   66  .71

NAKANO

         **** Don't distribute anyone except personal use only ****

                (C) Copyright 2005 OAA/ComputingSection

write mail from CFAD0::NAKANO on 2005-01-27 05:38:24(JST).

 





◎C/2005 A1の軌道と予報位置です



  天文学会の新天体発見賞,及び,天文功労賞審査委員会に出席のため,

対応が遅れました.12月の発見観測は,YC2456の軌道から主に赤緯方向に

0゚.65,1月16日の上尾の門田健一氏の観測は,同じく22"のずれがありま

した.これは,発見観測が悪かったことによります.門田氏の CCD全光度

は13.6等でした.彗星は,この春,南天で10等級まで明るくなるでしょう.

 

    C/2005 A1 (LINEAR)                                                    

T 2005 Apr. 10.24142 TT                                 Nakano

q   0.9066619            (2000.0)            P               Q

                   Peri.  271.88819     +0.01402747     +0.99746396

